Time,TemperatureF,DewpointF,PressureIn,WindDirection,WindDirectionDegrees,WindSpeedMPH,WindSpeedGustMPH,Humidity,HourlyPrecipIn,Conditions,Clouds,dailyrainin,SoftwareType,DateUTC
2013-04-03 00:00:00,53.6,44.0,30.00,SE,129,2.0,2.0,70,0.00,,,0.00,Wunderground v.1.15,2013-04-03 05:00:00,
2013-04-03 00:10:00,53.5,44.3,29.99,ESE,110,1.0,1.0,71,0.00,,,0.00,Wunderground v.1.15,2013-04-03 05:10:00,
2013-04-03 00:15:00,53.6,44.4,29.99,SSE,156,1.0,1.0,71,0.00,,,0.00,Wunderground v.1.15,2013-04-03 05:15:00,
2013-04-03 00:25:00,53.8,44.6,29.98,SE,138,1.0,4.0,71,0.00,,,0.00,Wunderground v.1.15,2013-04-03 05:25:00,
2013-04-03 00:35:00,54.1,44.9,29.97,East,90,2.0,2.0,71,0.00,,,0.00,Wunderground v.1.15,2013-04-03 05:35:00,
2013-04-03 00:40:00,54.3,45.1,29.97,SE,138,3.0,10.0,71,0.00,,,0.00,Wunderground v.1.15,2013-04-03 05:40:00,
2013-04-03 00:50:00,54.5,45.3,29.97,NE,50,2.0,2.0,71,0.00,,,0.00,Wunderground v.1.15,2013-04-03 05:50:00,
2013-04-03 00:55:00,54.5,45.3,29.97,South,174,2.0,2.0,71,0.00,,,0.00,Wunderground v.1.15,2013-04-03 05:55:00,
2013-04-03 01:00:00,54.6,45.4,29.97,East,92,2.0,3.0,71,0.00,,,0.00,Wunderground v.1.15,2013-04-03 06:00:00,
2013-04-03 01:10:00,54.7,45.8,29.97,East,82,3.0,3.0,72,0.00,,,0.00,Wunderground v.1.15,2013-04-03 06:10:00,
2013-04-03 01:15:00,54.7,45.8,29.97,SE,140,3.0,3.0,72,0.00,,,0.00,Wunderground v.1.15,2013-04-03 06:15:00,
2013-04-03 01:25:00,54.7,45.8,29.97,ESE,117,2.0,3.0,72,0.00,,,0.00,Wunderground v.1.15,2013-04-03 06:25:00,
2013-04-03 01:35:00,54.6,46.1,29.97,SE,128,1.0,7.0,73,0.00,,,0.00,Wunderground v.1.15,2013-04-03 06:35:00,
2013-04-03 01:45:00,54.7,46.6,30.02,NW,320,1.0,1.0,74,0.00,,,0.00,Wunderground v.1.15,2013-04-03 06:45:00,
2013-04-03 01:50:00,54.8,46.7,30.02,West,274,0.0,0.0,74,0.00,,,0.00,Wunderground v.1.15,2013-04-03 06:50:00,
2013-04-03 02:00:00,54.9,47.1,30.02,NNW,346,0.0,0.0,75,0.00,,,0.00,Wunderground v.1.15,2013-04-03 07:00:00,
2013-04-03 02:10:00,55.1,48.4,30.03,North,5,0.0,0.0,78,0.00,,,0.01,Wunderground v.1.15,2013-04-03 07:10:00,
2013-04-03 02:20:00,54.1,49.1,30.03,NNW,348,0.0,0.0,83,0.16,,,0.04,Wunderground v.1.15,2013-04-03 07:20:00,
2013-04-03 02:30:00,53.2,49.4,30.04,NW,304,0.0,0.0,87,0.18,,,0.07,Wunderground v.1.15,2013-04-03 07:30:00,
2013-04-03 02:40:00,52.7,49.5,30.04,NNE,22,1.0,2.0,89,0.12,,,0.08,Wunderground v.1.15,2013-04-03 07:40:00,
2013-04-03 02:50:00,52.2,49.4,30.04,NNE,12,1.0,1.0,90,0.04,,,0.08,Wunderground v.1.15,2013-04-03 07:50:00,
2013-04-03 03:00:00,52.0,49.5,30.05,NNW,337,0.0,0.0,91,0.00,,,0.09,Wunderground v.1.15,2013-04-03 08:00:00,
2013-04-03 03:10:00,51.8,49.3,30.05,West,269,0.0,0.0,91,0.36,,,0.12,Wunderground v.1.15,2013-04-03 08:10:00,
2013-04-03 03:15:00,51.7,49.5,30.05,West,269,0.0,0.0,92,0.23,,,0.14,Wunderground v.1.15,2013-04-03 08:15:00,
2013-04-03 03:25:00,51.6,49.4,30.05,West,269,0.0,0.0,92,0.23,,,0.18,Wunderground v.1.15,2013-04-03 08:25:00,
2013-04-03 03:35:00,51.3,49.3,30.06,WNW,303,0.0,0.0,93,0.23,,,0.22,Wunderground v.1.15,2013-04-03 08:35:00,
2013-04-03 03:45:00,51.1,49.1,30.06,NE,54,0.0,0.0,93,0.14,,,0.24,Wunderground v.1.15,2013-04-03 08:45:00,
2013-04-03 03:50:00,51.0,49.0,30.06,West,273,0.0,0.0,93,0.27,,,0.26,Wunderground v.1.15,2013-04-03 08:50:00,
2013-04-03 04:00:00,50.9,48.9,30.06,WNW,291,0.0,0.0,93,0.10,,,0.28,Wunderground v.1.15,2013-04-03 09:00:00,
2013-04-03 04:10:00,50.7,48.7,30.06,SW,231,0.0,0.0,93,0.06,,,0.29,Wunderground v.1.15,2013-04-03 09:10:00,
2013-04-03 04:15:00,50.6,48.9,30.06,SW,232,0.0,0.0,94,0.12,,,0.30,Wunderground v.1.15,2013-04-03 09:15:00,
2013-04-03 04:25:00,50.6,48.9,30.04,NNW,329,0.0,1.0,94,0.08,,,0.32,Wunderground v.1.15,2013-04-03 09:25:00,
2013-04-03 04:35:00,50.6,48.9,30.04,NNW,329,0.0,0.0,94,0.06,,,0.32,Wunderground v.1.15,2013-04-03 09:35:00,
2013-04-03 04:45:00,50.6,48.9,30.04,SE,145,0.0,0.0,94,0.00,,,0.33,Wunderground v.1.15,2013-04-03 09:45:00,
2013-04-03 04:50:00,50.6,48.9,30.04,North,355,0.0,0.0,94,0.00,,,0.33,Wunderground v.1.15,2013-04-03 09:50:00,
2013-04-03 05:00:00,50.5,48.8,30.03,East,93,0.0,0.0,94,0.10,,,0.35,Wunderground v.1.15,2013-04-03 10:00:00,
2013-04-03 05:10:00,50.3,48.6,30.01,East,87,1.0,3.0,94,0.13,,,0.37,Wunderground v.1.15,2013-04-03 10:10:00,
2013-04-03 05:20:00,49.8,48.1,29.99,SE,138,3.0,8.0,94,0.15,,,0.41,Wunderground v.1.15,2013-04-03 10:20:00,
2013-04-03 05:30:00,49.4,47.7,29.97,SE,139,4.0,6.0,94,0.08,,,0.42,Wunderground v.1.15,2013-04-03 10:30:00,
2013-04-03 05:40:00,49.3,47.9,29.97,SE,134,4.0,4.0,95,0.06,,,0.43,Wunderground v.1.15,2013-04-03 10:40:00,
2013-04-03 05:50:00,49.4,48.0,29.97,East,79,2.0,3.0,95,0.06,,,0.44,Wunderground v.1.15,2013-04-03 10:50:00,
2013-04-03 06:00:00,49.4,48.0,29.95,ENE,65,3.0,3.0,95,0.08,,,0.46,Wunderground v.1.15,2013-04-03 11:00:00,
2013-04-03 06:10:00,49.4,48.0,29.93,ESE,115,3.0,5.0,95,0.05,,,0.46,Wunderground v.1.15,2013-04-03 11:10:00,
2013-04-03 06:20:00,49.4,48.0,29.95,NE,42,4.0,4.0,95,0.00,,,0.46,Wunderground v.1.15,2013-04-03 11:20:00,
2013-04-03 06:30:00,49.2,47.8,29.98,NNE,28,1.0,1.0,95,0.00,,,0.46,Wunderground v.1.15,2013-04-03 11:30:00,
2013-04-03 06:40:00,49.1,47.7,29.97,ESE,105,1.0,2.0,95,0.00,,,0.47,Wunderground v.1.15,2013-04-03 11:40:00,
2013-04-03 06:50:00,49.0,47.6,30.01,WNW,293,1.0,2.0,95,0.00,,,0.47,Wunderground v.1.15,2013-04-03 11:50:00,
2013-04-03 06:55:00,49.1,47.7,30.03,NW,309,3.0,3.0,95,0.00,,,0.47,Wunderground v.1.15,2013-04-03 11:55:00,
2013-04-03 07:00:00,49.2,47.8,30.03,WNW,288,2.0,5.0,95,0.00,,,0.47,Wunderground v.1.15,2013-04-03 12:00:00,
2013-04-03 07:10:00,49.3,47.9,30.05,NNW,337,2.0,2.0,95,0.00,,,0.48,Wunderground v.1.15,2013-04-03 12:10:00,
2013-04-03 07:20:00,49.3,47.9,30.05,NNW,337,0.0,0.0,95,0.00,,,0.48,Wunderground v.1.15,2013-04-03 12:20:00,
2013-04-03 07:30:00,49.1,47.7,30.07,WNW,285,1.0,1.0,95,0.00,,,0.48,Wunderground v.1.15,2013-04-03 12:30:00,
2013-04-03 07:40:00,48.7,47.1,30.08,NW,324,1.0,4.0,94,0.00,,,0.48,Wunderground v.1.15,2013-04-03 12:40:00,
2013-04-03 07:50:00,48.0,46.4,30.08,NNE,13,2.0,4.0,94,0.00,,,0.48,Wunderground v.1.15,2013-04-03 12:50:00,
2013-04-03 08:00:00,47.7,46.1,30.08,North,355,1.0,1.0,94,0.00,,,0.48,Wunderground v.1.15,2013-04-03 13:00:00,
2013-04-03 08:10:00,47.5,46.1,30.08,North,360,1.0,1.0,95,0.00,,,0.48,Wunderground v.1.15,2013-04-03 13:10:00,
2013-04-03 08:20:00,47.5,46.1,30.08,North,10,0.0,0.0,95,0.00,,,0.48,Wunderground v.1.15,2013-04-03 13:20:00,
2013-04-03 08:30:00,47.3,45.9,30.08,ENE,63,1.0,4.0,95,0.00,,,0.48,Wunderground v.1.15,2013-04-03 13:30:00,
2013-04-03 08:40:00,47.1,45.7,30.08,NNW,348,1.0,1.0,95,0.00,,,0.48,Wunderground v.1.15,2013-04-03 13:40:00,
2013-04-03 08:50:00,47.0,45.6,30.08,North,5,1.0,1.0,95,0.00,,,0.48,Wunderground v.1.15,2013-04-03 13:50:00,
2013-04-03 09:00:00,47.0,45.6,30.10,North,5,0.0,0.0,95,0.00,,,0.48,Wunderground v.1.15,2013-04-03 14:00:00,
2013-04-03 09:10:00,46.9,45.5,30.10,NNE,24,0.0,0.0,95,0.00,,,0.48,Wunderground v.1.15,2013-04-03 14:10:00,
2013-04-03 09:15:00,46.8,45.4,30.10,NNE,24,0.0,1.0,95,0.00,,,0.48,Wunderground v.1.15,2013-04-03 14:15:00,
2013-04-03 09:25:00,46.7,45.3,30.10,North,5,1.0,1.0,95,0.00,,,0.48,Wunderground v.1.15,2013-04-03 14:25:00,
2013-04-03 09:35:00,46.7,45.3,30.10,North,5,0.0,0.0,95,0.00,,,0.48,Wunderground v.1.15,2013-04-03 14:35:00,
2013-04-03 09:45:00,46.6,45.2,30.12,North,360,0.0,0.0,95,0.00,,,0.48,Wunderground v.1.15,2013-04-03 14:45:00,
2013-04-03 09:55:00,46.3,44.9,30.12,North,10,0.0,0.0,95,0.00,,,0.48,Wunderground v.1.15,2013-04-03 14:55:00,
2013-04-03 10:00:00,46.3,44.9,30.12,North,10,0.0,0.0,95,0.00,,,0.48,Wunderground v.1.15,2013-04-03 15:00:00,
2013-04-03 10:10:00,46.5,45.1,30.12,North,10,0.0,0.0,95,0.00,,,0.48,Wunderground v.1.15,2013-04-03 15:10:00,
2013-04-03 10:15:00,46.5,45.1,30.12,North,360,0.0,0.0,95,0.00,,,0.48,Wunderground v.1.15,2013-04-03 15:15:00,
2013-04-03 10:25:00,46.6,45.2,30.12,North,360,0.0,0.0,95,0.00,,,0.48,Wunderground v.1.15,2013-04-03 15:25:00,
2013-04-03 10:35:00,46.5,45.1,30.11,North,360,0.0,0.0,95,0.00,,,0.48,Wunderground v.1.15,2013-04-03 15:35:00,
2013-04-03 10:45:00,46.6,45.2,30.12,North,360,0.0,0.0,95,0.00,,,0.48,Wunderground v.1.15,2013-04-03 15:45:00,
2013-04-03 10:55:00,46.7,45.3,30.12,North,5,0.0,0.0,95,0.00,,,0.48,Wunderground v.1.15,2013-04-03 15:55:00,
2013-04-03 11:00:00,46.7,45.3,30.12,North,360,0.0,0.0,95,0.00,,,0.48,Wunderground v.1.15,2013-04-03 16:00:00,
2013-04-03 11:10:00,46.7,45.3,30.12,NNE,13,0.0,0.0,95,0.00,,,0.48,Wunderground v.1.15,2013-04-03 16:10:00,
2013-04-03 11:15:00,46.7,45.1,30.12,North,5,0.0,0.0,94,0.00,,,0.48,Wunderground v.1.15,2013-04-03 16:15:00,
2013-04-03 11:25:00,46.9,45.5,30.13,SE,140,0.0,0.0,95,0.00,,,0.48,Wunderground v.1.15,2013-04-03 16:25:00,
2013-04-03 11:35:00,46.9,45.3,30.13,NNW,346,0.0,0.0,94,0.00,,,0.48,Wunderground v.1.15,2013-04-03 16:35:00,
2013-04-03 11:45:00,47.0,45.4,30.13,NNW,346,0.0,0.0,94,0.00,,,0.48,Wunderground v.1.15,2013-04-03 16:45:00,
2013-04-03 11:50:00,47.2,45.6,30.14,NNW,346,0.0,0.0,94,0.00,,,0.48,Wunderground v.1.15,2013-04-03 16:50:00,
2013-04-03 12:00:00,47.3,45.7,30.13,NE,42,0.0,0.0,94,0.00,,,0.48,Wunderground v.1.15,2013-04-03 17:00:00,
2013-04-03 12:10:00,47.3,45.7,30.13,North,351,0.0,0.0,94,0.00,,,0.48,Wunderground v.1.15,2013-04-03 17:10:00,
2013-04-03 12:20:00,47.3,45.7,30.12,North,351,0.0,0.0,94,0.00,,,0.48,Wunderground v.1.15,2013-04-03 17:20:00,
2013-04-03 12:30:00,47.3,45.7,30.12,North,351,0.0,0.0,94,0.00,,,0.48,Wunderground v.1.15,2013-04-03 17:30:00,
2013-04-03 12:40:00,47.3,45.7,30.12,NNW,348,0.0,2.0,94,0.00,,,0.48,Wunderground v.1.15,2013-04-03 17:40:00,
2013-04-03 12:50:00,47.3,45.7,30.12,NNE,19,0.0,0.0,94,0.00,,,0.48,Wunderground v.1.15,2013-04-03 17:50:00,
2013-04-03 12:55:00,47.4,45.8,30.12,NNE,19,0.0,0.0,94,0.00,,,0.48,Wunderground v.1.15,2013-04-03 17:55:00,
2013-04-03 13:00:00,47.4,45.8,30.12,WNW,302,0.0,0.0,94,0.00,,,0.48,Wunderground v.1.15,2013-04-03 18:00:00,
2013-04-03 13:10:00,47.7,46.3,30.12,East,87,0.0,3.0,95,0.00,,,0.48,Wunderground v.1.15,2013-04-03 18:10:00,
2013-04-03 13:15:00,47.7,46.3,30.11,ENE,75,0.0,3.0,95,0.00,,,0.48,Wunderground v.1.15,2013-04-03 18:15:00,
2013-04-03 13:25:00,47.5,45.9,30.11,NE,56,0.0,2.0,94,0.00,,,0.48,Wunderground v.1.15,2013-04-03 18:25:00,
2013-04-03 13:30:00,47.5,46.1,30.11,NNE,26,0.0,0.0,95,0.00,,,0.48,Wunderground v.1.15,2013-04-03 18:30:00,
2013-04-03 13:40:00,47.7,46.3,30.11,NNE,29,0.0,0.0,95,0.00,,,0.48,Wunderground v.1.15,2013-04-03 18:40:00,
2013-04-03 13:50:00,47.7,46.1,30.11,NNE,29,0.0,0.0,94,0.00,,,0.48,Wunderground v.1.15,2013-04-03 18:50:00,
2013-04-03 14:00:00,47.5,45.9,30.10,NE,53,0.0,0.0,94,0.00,,,0.48,Wunderground v.1.15,2013-04-03 19:00:00,
2013-04-03 14:10:00,47.4,45.8,30.11,ENE,61,0.0,0.0,94,0.00,,,0.48,Wunderground v.1.15,2013-04-03 19:10:00,
2013-04-03 14:20:00,47.4,45.5,30.10,NE,50,0.0,0.0,93,0.00,,,0.48,Wunderground v.1.15,2013-04-03 19:20:00,
2013-04-03 14:30:00,47.5,45.6,30.10,North,5,0.0,0.0,93,0.00,,,0.48,Wunderground v.1.15,2013-04-03 19:30:00,
2013-04-03 14:40:00,47.6,45.4,30.10,NE,53,0.0,0.0,92,0.00,,,0.48,Wunderground v.1.15,2013-04-03 19:40:00,
2013-04-03 14:50:00,47.8,45.6,30.09,NNE,22,0.0,0.0,92,0.00,,,0.48,Wunderground v.1.15,2013-04-03 19:50:00,
2013-04-03 15:00:00,47.9,45.4,30.10,SE,129,0.0,0.0,91,0.00,,,0.48,Wunderground v.1.15,2013-04-03 20:00:00,
2013-04-03 15:10:00,48.1,45.3,30.10,ENE,59,0.0,0.0,90,0.00,,,0.48,Wunderground v.1.15,2013-04-03 20:10:00,
2013-04-03 15:15:00,48.1,45.3,30.10,ESE,117,0.0,0.0,90,0.00,,,0.48,Wunderground v.1.15,2013-04-03 20:15:00,
2013-04-03 15:25:00,48.3,45.5,30.10,NE,36,0.0,1.0,90,0.00,,,0.48,Wunderground v.1.15,2013-04-03 20:25:00,
2013-04-03 15:35:00,48.4,45.3,30.11,NNE,19,0.0,0.0,89,0.00,,,0.48,Wunderground v.1.15,2013-04-03 20:35:00,
2013-04-03 15:45:00,48.6,45.5,30.11,NNE,28,0.0,0.0,89,0.00,,,0.48,Wunderground v.1.15,2013-04-03 20:45:00,
2013-04-03 15:55:00,48.6,45.2,30.12,NNE,28,0.0,0.0,88,0.00,,,0.48,Wunderground v.1.15,2013-04-03 20:55:00,
2013-04-03 16:00:00,48.6,45.2,30.12,NNE,28,0.0,0.0,88,0.00,,,0.48,Wunderground v.1.15,2013-04-03 21:00:00,
2013-04-03 16:10:00,48.7,45.3,30.13,NW,304,0.0,0.0,88,0.00,,,0.48,Wunderground v.1.15,2013-04-03 21:10:00,
2013-04-03 16:20:00,48.8,45.4,30.12,WNW,286,0.0,0.0,88,0.00,,,0.48,Wunderground v.1.15,2013-04-03 21:20:00,
2013-04-03 16:25:00,48.7,45.3,30.12,NW,306,0.0,0.0,88,0.00,,,0.48,Wunderground v.1.15,2013-04-03 21:25:00,
2013-04-03 16:35:00,48.6,45.5,30.11,NNW,336,0.0,0.0,89,0.00,,,0.48,Wunderground v.1.15,2013-04-03 21:35:00,
2013-04-03 16:45:00,48.5,45.7,30.11,North,5,0.0,0.0,90,0.00,,,0.48,Wunderground v.1.15,2013-04-03 21:45:00,
2013-04-03 16:55:00,48.5,46.0,30.12,WNW,300,0.0,0.0,91,0.00,,,0.48,Wunderground v.1.15,2013-04-03 21:55:00,
2013-04-03 17:00:00,48.4,45.9,30.11,NNW,331,0.0,0.0,91,0.00,,,0.48,Wunderground v.1.15,2013-04-03 22:00:00,
2013-04-03 17:15:00,48.4,46.2,30.10,North,360,0.0,1.0,92,0.00,,,0.48,Wunderground v.1.15,2013-04-03 22:15:00,
2013-04-03 17:25:00,48.3,46.1,30.08,NNE,32,1.0,1.0,92,0.00,,,0.49,Wunderground v.1.15,2013-04-03 22:25:00,
2013-04-03 17:30:00,48.3,46.1,30.06,SSE,165,1.0,2.0,92,0.20,,,0.51,Wunderground v.1.15,2013-04-03 22:30:00,
2013-04-03 17:40:00,48.3,46.4,30.10,WNW,284,1.0,1.0,93,0.21,,,0.55,Wunderground v.1.15,2013-04-03 22:40:00,
2013-04-03 17:50:00,48.3,46.7,30.08,WNW,284,0.0,0.0,94,0.24,,,0.58,Wunderground v.1.15,2013-04-03 22:50:00,
2013-04-03 18:00:00,48.2,46.6,30.09,WNW,284,0.0,0.0,94,0.14,,,0.60,Wunderground v.1.15,2013-04-03 23:00:00,
2013-04-03 18:10:00,48.2,46.6,30.09,NNW,342,0.0,0.0,94,0.10,,,0.62,Wunderground v.1.15,2013-04-03 23:10:00,
2013-04-03 18:15:00,48.2,46.6,30.09,NNW,342,0.0,0.0,94,0.13,,,0.63,Wunderground v.1.15,2013-04-03 23:15:00,
2013-04-03 18:25:00,48.2,46.6,30.10,NNW,342,0.0,0.0,94,0.16,,,0.66,Wunderground v.1.15,2013-04-03 23:25:00,
2013-04-03 18:35:00,48.2,46.8,30.11,WNW,296,0.0,0.0,95,0.14,,,0.68,Wunderground v.1.15,2013-04-03 23:35:00,
2013-04-03 18:45:00,48.1,46.7,30.11,WNW,296,0.0,1.0,95,0.22,,,0.70,Wunderground v.1.15,2013-04-03 23:45:00,
2013-04-03 18:55:00,48.0,46.6,30.10,NNW,344,0.0,1.0,95,0.24,,,0.74,Wunderground v.1.15,2013-04-03 23:55:00,
2013-04-03 19:00:00,47.9,46.5,30.12,WNW,294,1.0,2.0,95,0.16,,,0.75,Wunderground v.1.15,2013-04-04 00:00:00,
2013-04-03 19:10:00,47.9,46.5,30.11,NW,322,1.0,1.0,95,0.06,,,0.76,Wunderground v.1.15,2013-04-04 00:10:00,
2013-04-03 19:15:00,47.9,46.5,30.11,WNW,300,0.0,1.0,95,0.04,,,0.76,Wunderground v.1.15,2013-04-04 00:15:00,
2013-04-03 19:25:00,47.8,46.4,30.11,WNW,296,0.0,1.0,95,0.04,,,0.77,Wunderground v.1.15,2013-04-04 00:25:00,
2013-04-03 19:30:00,47.8,46.4,30.12,West,281,0.0,0.0,95,0.07,,,0.78,Wunderground v.1.15,2013-04-04 00:30:00,
2013-04-03 19:40:00,47.5,46.1,30.12,West,265,0.0,0.0,95,0.04,,,0.78,Wunderground v.1.15,2013-04-04 00:40:00,
2013-04-03 19:45:00,47.4,46.0,30.12,NNW,339,0.0,0.0,95,0.00,,,0.78,Wunderground v.1.15,2013-04-04 00:45:00,
2013-04-03 19:55:00,47.3,45.9,30.12,North,360,0.0,2.0,95,0.00,,,0.78,Wunderground v.1.15,2013-04-04 00:55:00,
2013-04-03 20:00:00,47.3,45.9,30.12,North,360,0.0,0.0,95,0.00,,,0.78,Wunderground v.1.15,2013-04-04 01:00:00,
2013-04-03 20:10:00,47.2,45.8,30.12,NW,323,0.0,0.0,95,0.00,,,0.78,Wunderground v.1.15,2013-04-04 01:10:00,
2013-04-03 20:15:00,47.1,45.7,30.13,NW,325,0.0,0.0,95,0.00,,,0.78,Wunderground v.1.15,2013-04-04 01:15:00,
2013-04-03 20:25:00,46.9,45.5,30.14,NNW,337,0.0,0.0,95,0.00,,,0.79,Wunderground v.1.15,2013-04-04 01:25:00,
2013-04-03 20:35:00,46.3,44.7,30.14,NNW,343,0.0,0.0,94,0.00,,,0.79,Wunderground v.1.15,2013-04-04 01:35:00,
2013-04-03 20:50:00,45.9,44.3,30.14,NW,309,0.0,0.0,94,0.00,,,0.79,Wunderground v.1.15,2013-04-04 01:50:00,
2013-04-03 21:00:00,45.8,44.2,30.15,NW,309,0.0,1.0,94,0.00,,,0.79,Wunderground v.1.15,2013-04-04 02:00:00,
2013-04-03 21:10:00,45.5,43.9,30.15,NNW,333,0.0,1.0,94,0.00,,,0.79,Wunderground v.1.15,2013-04-04 02:10:00,
2013-04-03 21:15:00,45.4,43.8,30.15,NNW,327,0.0,1.0,94,0.00,,,0.79,Wunderground v.1.15,2013-04-04 02:15:00,
2013-04-03 21:25:00,45.3,43.7,30.16,NNW,335,0.0,0.0,94,0.00,,,0.80,Wunderground v.1.15,2013-04-04 02:25:00,
2013-04-03 21:35:00,45.3,44.0,30.16,NNW,341,0.0,1.0,95,0.00,,,0.80,Wunderground v.1.15,2013-04-04 02:35:00,
2013-04-03 21:45:00,45.2,43.9,30.17,NW,315,1.0,1.0,95,0.11,,,0.82,Wunderground v.1.15,2013-04-04 02:45:00,
2013-04-03 21:55:00,45.2,43.9,30.17,West,276,0.0,0.0,95,0.04,,,0.82,Wunderground v.1.15,2013-04-04 02:55:00,
2013-04-03 22:00:00,45.3,44.0,30.17,NE,53,0.0,0.0,95,0.00,,,0.82,Wunderground v.1.15,2013-04-04 03:00:00,
2013-04-03 22:10:00,45.3,44.0,30.18,WNW,294,0.0,0.0,95,0.00,,,0.82,Wunderground v.1.15,2013-04-04 03:10:00,
2013-04-03 22:15:00,45.2,43.9,30.18,NE,34,0.0,0.0,95,0.00,,,0.82,Wunderground v.1.15,2013-04-04 03:15:00,
2013-04-03 22:25:00,44.8,43.2,30.18,NW,325,0.0,0.0,94,0.00,,,0.82,Wunderground v.1.15,2013-04-04 03:25:00,
2013-04-03 22:35:00,44.4,42.8,30.18,North,355,0.0,0.0,94,0.00,,,0.82,Wunderground v.1.15,2013-04-04 03:35:00,
2013-04-03 22:45:00,44.1,42.5,30.18,NNE,12,0.0,0.0,94,0.00,,,0.82,Wunderground v.1.15,2013-04-04 03:45:00,
2013-04-03 22:55:00,44.0,42.4,30.18,North,5,0.0,0.0,94,0.00,,,0.82,Wunderground v.1.15,2013-04-04 03:55:00,
2013-04-03 23:00:00,44.1,42.5,30.18,North,5,0.0,0.0,94,0.00,,,0.83,Wunderground v.1.15,2013-04-04 04:00:00,
2013-04-03 23:05:00,44.1,42.5,30.18,North,5,0.0,0.0,94,0.00,,,0.83,Wunderground v.1.15,2013-04-04 04:05:00,
2013-04-03 23:10:00,44.1,42.5,30.18,North,5,0.0,0.0,94,0.00,,,0.83,Wunderground v.1.15,2013-04-04 04:10:00,
2013-04-03 23:15:00,44.0,42.4,30.18,North,5,0.0,0.0,94,0.00,,,0.83,Wunderground v.1.15,2013-04-04 04:15:00,
2013-04-03 23:20:00,44.0,42.4,30.19,North,5,0.0,0.0,94,0.00,,,0.83,Wunderground v.1.15,2013-04-04 04:20:00,
2013-04-03 23:30:00,44.0,42.4,30.19,WNW,286,0.0,1.0,94,0.00,,,0.84,Wunderground v.1.15,2013-04-04 04:30:00,
2013-04-03 23:40:00,43.8,42.2,30.18,WNW,290,0.0,0.0,94,0.11,,,0.85,Wunderground v.1.15,2013-04-04 04:40:00,
2013-04-03 23:45:00,43.8,42.2,30.18,WNW,290,0.0,0.0,94,0.06,,,0.85,Wunderground v.1.15,2013-04-04 04:45:00,
2013-04-03 23:50:00,43.8,42.5,30.18,WNW,294,0.0,0.0,95,0.05,,,0.86,Wunderground v.1.15,2013-04-04 04:50:00,